Zurück zum Katalog

ARIANE 42P DEB

AktivLEO
NORAD 44507·DEBRIS·🇫🇷 France

Gestartet Aug 10, 1992 von Guiana Space Centre

Loading…

Nächste Überflüge (nächste 24 Stunden)

TLE

AktuellSource: Space-Track

Epoche: Sep 14, 2026, 08:55 UTC

1 44507U 92052E   26257.37177784  .00001057  00000-0  41132-2 0  9990
2 44507  66.0090  42.7654 0156714 252.4725 105.9117 12.89045477332382

Verfolge ARIANE 42P DEB in Echtzeit mit AllMySat

Download on the App Store